Regional Weather Roundup
Issued by NWS

Home | Current Version | Previous Version | Graphics & Text | Print | Product List | Glossary On
Versions: 1 2 3 4 5 6 7 8 9 10 11 12 13 14 15 16 17 18 19 20 21 22 23 24 25 26 27 28 29 30 31 32 33 34 35 36 37 38 39 40 41 42 43 44 45 46 47 48 49 50
000
ASUS43 KMPX 030110
RWRMN
WEATHER ROUNDUP FOR MINNESOTA
NATIONAL WEATHER SERVICE TWIN CITIES/CHANHASSEN MN
800 PM CDT TUE JUN 02 2015


NOTE: "FAIR" INDICATES FEW OR NO CLOUDS BELOW 12,000 FEET WITH NO
SIGNIFICANT WEATHER AND/OR OBSTRUCTIONS TO VISIBILITY. N/A MEANS
CURRENT SKY AND/OR WEATHER CONDITIONS ARE NOT AVAILABLE.

MNZ060>063-068>070-030200-
   Twin Cities Metro

CITY           SKY/WX    TMP DP  RH WIND       PRES   REMARKS
TWIN CITIES    MOCLDY    74  52  46 SE14      29.90F
ST PAUL        MOCLDY    73  53  49 S14       29.92S
CRYSTAL        MOCLDY    75  53  46 S13G20    29.89F
BLAINE         PTCLDY    75  54  46 SE15      29.90S
LAKEVILLE      MOCLDY    72  54  53 S9G18     29.92S
EDEN PRAIRIE   MOCLDY    74  52  46 S15       29.89F
SOUTH ST PAUL  MOCLDY    74  50  43 SE10      29.92S
LAKE ELMO      FAIR      72  54  53 SE9       29.94R
$$
MNZ001>005-007-008-013>017-022>024-027-028-030200-
   Northwest Minnesota

CITY           SKY/WX    TMP DP  RH WIND       PRES   REMARKS
BEMIDJI        MOCLDY    69  53  57 S12       29.81F
HALLOCK        CLOUDY    61  61 100 E5        29.80F
ROSEAU         CLOUDY    61  55  82 CALM      29.83S
WARROAD        HVY RAIN  59  55  88 E5        29.84S
THIEF RVR FALL CLOUDY    66  59  77 E8        29.78F
CROOKSTON      CLOUDY    70  61  73 E7G17     29.75F
FOSSTON        CLOUDY    68  61  77 SE10      29.78F
DETROIT LAKES  MOCLDY    72  55  56 SE12      29.78F
MOORHEAD       PTSUNNY   79  63  57 SE14      29.71F
PARK RAPIDS    MOCLDY    70  53  54 SE13      29.81F
MAHNOMEN       CLOUDY    70  56  62 SE14      29.75F
$$
MNZ006-009>011-018-025>026-030200-
   North Central Minnesota

CITY           SKY/WX    TMP DP  RH WIND       PRES   REMARKS
BAUDETTE       CLOUDY    60  59  96 NE3       29.83F
FLAG ISLAND    LGT RAIN  57  57 100 SE3       29.83S
INTL FALLS     LGT RAIN  60  58  92 CALM      29.85R FOG
WASKISH        CLOUDY    66  59  77 CALM      29.82F
BIG FORK       LGT RAIN  64  54  68 S12       29.87S
LONGVILLE      MOCLDY    66  54  63 SE9       29.86F
GRAND RAPIDS   CLOUDY    64  52  63 SE8       29.89F
CRANE LAKE     CLOUDY    63  57  82 CALM      29.87F
ORR            CLOUDY    70  45  40 S12G17    29.84S
COOK           CLOUDY    70  48  46 S9G17     29.88S
WALKER         CLOUDY    67  52  58 SE9       29.83F
$$
MNZ012-019>021-037-030200-
   Northeast Minnesota

CITY           SKY/WX    TMP DP  RH WIND       PRES   REMARKS
DULUTH         CLOUDY    57  41  55 SE7       29.94R
ELY            CLOUDY    70  46  43 S7        29.90S
HIBBING        LGT RAIN  69  53  56 S7        29.90R
EVELETH        CLOUDY    70  50  49 S8        29.91S
DULUTH HARBOR  CLOUDY    48  41  76 NE3       29.95F
TWO HARBORS    CLOUDY    63  48  59 E5        29.92S
SILVER BAY     CLOUDY    57  41  54 E3        29.93F
GRAND MARAIS     N/A     56  42  59 NE8       29.95F
G MARAIS ARPRT CLOUDY    55  37  50 E5        29.98S
$$
MNZ029>031-032-039>041-046>048-054>057-064-030200-
   West Central Minnesota

CITY           SKY/WX    TMP DP  RH WIND       PRES   REMARKS
FERGUS FALLS   CLOUDY    79  61  53 S16       29.75S
WHEATON        MOCLDY    79  61  53 S13G21    29.75S
MORRIS         CLOUDY    79  59  50 S15       29.77R
ALEXANDRIA     PTCLDY    75  56  51 S14       29.82F
ELBOW LAKE     CLOUDY    76  60  56 S17       29.77S
WADENA         CLOUDY    73  54  49 SE13      29.80F
GLENWOOD       PTCLDY    73  57  56 SE15      29.83S
APPLETON       PTCLDY    81  57  44 S15G23    29.77S
BENSON         PTCLDY    75  55  50 S16G25    29.80R
ORTONVILLE     PTCLDY    79  59  50 S12G20    29.75F
MADISON        PTCLDY    79  59  50 S18G29    29.77S
WILLMAR        FAIR      79  55  44 S10G23    29.84S
$$
MNZ033>034-036-042>043-049>051-058-059-030200-
   Central Minnesota

CITY           SKY/WX    TMP DP  RH WIND       PRES   REMARKS
ST CLOUD       CLEAR     73  52  47 SE14      29.86S
SAUK CENTRE    FAIR      74  52  46 S15G21    29.84S
PAYNESVILLE    CLEAR     73  49  43 SE14      29.85S
AITKIN         CLOUDY    70  54  56 SE6       29.87S
PINE RIVER     MOCLDY    66  55  68 SE7       29.89S
BRAINERD       CLOUDY    68  54  60 SE9       29.86F
STAPLES        CLOUDY    73  48  40 SE10      29.83S
LONG PRAIRIE   FAIR      72  48  43 SE13G23   29.84S
LITTLE FALLS   PTCLDY    72  50  46 SE12G18   29.84F
LITCHFIELD     CLEAR     75  48  38 SE8G18    29.86S
BUFFALO        PTCLDY    73  50  43 SE8       29.89S
MAPLE LAKE     PTCLDY    75  55  49 SE8       29.88S
$$
MNZ037-044-045-052-053-030200-
   East Central Minnesota

CITY           SKY/WX    TMP DP  RH WIND       PRES   REMARKS
PRINCETON      MOCLDY    75  54  46 SE12G18   29.88F
MORA           CLOUDY    70  52  52 S8        29.91F
CAMBRIDGE      CLOUDY    73  55  53 SE6       29.89S
RUSH CITY      CLOUDY    70  53  55 SE9       29.91F
MOOSE LAKE     CLOUDY    68  52  56 S5        29.90S
HINCKLEY       MOCLDY    70  54  56 SE7       29.91F
CLOQUET        LGT RAIN  59  43  55 E6        29.93S
MCGREGOR       CLOUDY    68  54  60 SE7       29.90S
$$
MNZ071>073-080-081-089-090-097-098-030200-
   Southwest Minnesota

CITY           SKY/WX    TMP DP  RH WIND       PRES   REMARKS
MONTEVIDEO     PTCLDY    79  59  50 SW16G25   29.80R
GRANITE FALLS  PTCLDY    78  57  49 SE21      29.82S
CANBY          CLEAR     78  60  53 S16G23    29.79R
MARSHALL       CLEAR     79  57  47 S23G29    29.80S
REDWOOD FALLS  CLEAR     76  55  48 S23G30    29.83S
OLIVIA         CLEAR     72  52  49 S17G26    29.84S
PIPESTONE      CLEAR     75  61  60 S20G26    29.82S
WINDOM         CLEAR     73  54  49 SE16G29   29.87S
WORTHINGTON    CLEAR     73  55  53 S18G26    29.86S
JACKSON        PTCLDY    72  55  56 S16G26    29.89F
TRACY          CLEAR     77  57  50 S18G29    29.83S
SLAYTON        CLEAR     76  57  51 S18G30    29.85S
$$
MNZ065>067-074>077-082>085-091>093-030200-
   South Central Minnesota

CITY           SKY/WX    TMP DP  RH WIND       PRES   REMARKS
MANKATO        MOCLDY    75  50  41 S16G23    29.90S
NEW ULM        PTCLDY    73  48  40 S20G25    29.86S
ST JAMES       PTCLDY    75  54  46 SE16G22   29.88F
FAIRMONT       PTCLDY    72  50  46 S24       29.90S
GLENCOE        PTCLDY    77  53  44 SE13G20   29.87S
FARIBAULT      PTCLDY    73  52  46 S14       29.93S
OWATONNA       PTCLDY    73  50  43 S15       29.93F
WASECA         MOCLDY    72  50  46 SE14G21   29.93F
ALBERT LEA     PTCLDY    72  48  43 S14       29.94S
$$
MNZ078>079-086>088-094>096-030200-
   Southeast Minnesota

CITY           SKY/WX    TMP DP  RH WIND       PRES   REMARKS
ROCHESTER      PTCLDY    69  50  50 S13       29.98F
RED WING       PTCLDY    73  48  40 S6        29.94S
STANTON        PTCLDY    73  50  45 S14G22    29.92S
DODGE CENTER   PTCLDY    72  52  49 S16       29.97S
WINONA         PTCLDY    70  50  49 S7        29.99S
AUSTIN         PTCLDY    70  52  52 S12       29.96S
PRESTON        PTCLDY    68  49  49 S8        30.00S
$$
ABBREVIATIONS USED IN REMARKS
   TC - TEMPERATURES IN CELSIUS
  WCI - WIND CHILL INDEX
   HX - HEAT INDEX
  VSB - VISIBILITY
$$



USA.gov is the U.S. government's official web portal to all federal, state and local government web resources and services.